User: anonymous   Login
Location: Caltech
(34.1382°N, 118.1253°W)
Time: 14:11:09
(UTC-08:00)
Language:

Meteor 2-4 Rocket - Orbit

View from above orbital plane
View from above orbital plane
View from above satellite
View from above satellite

Ground track
Ground track

The orbit data is extracted from the following two-line orbital elements,

1 11289U 79021B   17055.08907902  .00000032  00000-0  10422-4 0  9991
2 11289  81.2445 274.4810 0075495 193.9657 165.9429 14.11555402954870
Epoch (UTC): 24 February 2017 02:08:16
Eccentricity: 0.0075495
inclination: 81.2445°
perigee height: 799 km
apogee height: 908 km
right ascension of ascending node: 274.4810°
argument of perigee: 193.9657°
revolutions per day: 14.11555402
mean anomaly at epoch: 165.9429°
orbit number at epoch: 95487

The dashed part of the orbit path shows where the satellite is in the earth's shadow,  

DLR